CHINASAT 5A (ZX 5A)

Last updated on Sat Aug 11 2018 00:20:40 GMT+0000 (Coordinated Universal Time)

1 25354U 98033A 18222.61785626 .00000031 00000-0 00000+0 0 9991 2 25354 2.1354 84.8181 0000735 57.6412 261.4517 0.98992843 78470
UTC large
Height (km)
Speed (km/s)
/
Latitude / Longitude
Inclination (degrees)
Orbital Period (minutes)
Azimuth
Elevation
Range (km)
Doppler Factor

Next 0 passes for location: London (51.5072 / 0.1276)

Sorry there are no passes over London.
CHINASAT 5A (ZX 5A)